Tracking 31027 objects as of 19-Jul-2025
HD Live streaming from Space Station
objects crossing your sky now

WESTFORD NEEDLES

Track WESTFORD NEEDLES now!
10-day predictions
WESTFORD NEEDLES is classified as:


NORAD ID: 2375
Int'l Code: 1963-014W
Perigee: 1,971.4 km
Apogee: 5,186.0 km
Inclination: 86.5 °
Period: 164.6 minutes
Semi major axis: 9949 km
RCS: 0.1605 m2 (medium)
Launch date: May 9, 1963
Source: United States (US)
Launch site: AIR FORCE WESTERN TEST RANGE (AFWTR)
Your satellite tracking list
MOLNIYA 1-86
Track 1 satellite(s)




NASA's NSSDC Master Catalog

Two Line Element Set (TLE):
1 02375U 63014W   25199.38647200  .00001721  00000-0  19496+0 0  9996
2 02375  86.4505  97.5646 1615403 184.2338 174.3253  8.74755664342234
Source of the keplerian elements: AFSPC